Location: Linz
(48.3300°N, 14.3000°E)
Time: 16:27:41
(UTC+01:00)

N. Korean satellite - Pass Details

Date: 17 November 2017
Orbit: 460 x 514 km, 97.2° (Epoch: 20 November)

Event Time Altitude Azimuth Distance (km) Brightness Sun altitude
Rises 18:54:00 0° 203° (SSW) 2,487 10.5 -25.1°
Reaches altitude 10° 18:56:31 10° 223° (SW) 1,624 9.7 -25.5°
Maximum altitude 18:58:58 18° 268° (W) 1,228 9.4 -25.9°
Drops below altitude 10° 19:01:27 10° 313° (NW) 1,653 9.8 -26.3°
Sets 19:04:03 0° 333° (NNW) 2,549 10.6 -26.7°
